Terug naar catalogus

STARLINK-35673

ActiefCommunicatieVLEO
NORAD 66492·PAYLOAD·🇺🇸 United States

Gelanceerd Nov 15, 2025 vanaf Cape Canaveral Space Force Station

Loading…

Volgende Passages (komende 24 uur)

TLE

VersSource: CelesTrak SupGP

Epoch: Sep 14, 2026, 20:57 UTC

1 66492C 25263H   26257.87340278  .00014965  00000+0  54204-3 0  2575
2 66492  43.0038   2.2484 0001866 273.0778  49.9792 15.27569177    13

Volg STARLINK-35673 in realtime met AllMySat

Download on the App Store